Time,TemperatureF,DewpointF,PressureIn,WindDirection,WindDirectionDegrees,WindSpeedMPH,WindSpeedGustMPH,Humidity,HourlyPrecipIn,Conditions,Clouds,dailyrainin,SoftwareType,DateUTC
2013-07-22 00:33:00,76.0,-99.9,29.94,ENE,73,-999.0,-999.0,-999,0.00,,,-99.99,,2013-07-22 04:33:00,
2013-07-22 00:43:00,76.0,-99.9,29.94,ENE,73,-999.0,-999.0,-999,0.00,,,-99.99,,2013-07-22 04:43:00,
2013-07-22 01:32:00,75.0,-99.9,29.95,ENE,73,-999.0,-999.0,-999,-99.99,,,-99.99,,2013-07-22 05:32:00,
2013-07-22 01:43:00,75.0,-99.9,29.95,ENE,73,-999.0,-999.0,-999,-99.99,,,-99.99,,2013-07-22 05:43:00,
2013-07-22 01:52:00,75.0,-99.9,29.95,ENE,73,-999.0,-999.0,-999,-99.99,,,-99.99,,2013-07-22 05:52:00,
2013-07-22 02:33:00,74.0,-99.9,29.94,ENE,73,-999.0,-999.0,-999,0.00,,,-99.99,,2013-07-22 06:33:00,
2013-07-22 02:43:00,74.0,-99.9,29.94,ENE,73,-999.0,-999.0,-999,0.00,,,-99.99,,2013-07-22 06:43:00,
2013-07-22 02:52:00,74.0,-99.9,29.94,ENE,73,-999.0,-999.0,-999,0.00,,,-99.99,,2013-07-22 06:52:00,
2013-07-22 02:53:00,73.0,-99.9,29.93,North,358,-999.0,5.0,-999,0.00,,,-99.99,,2013-07-22 06:53:00,
2013-07-22 03:33:00,73.0,-99.9,29.93,North,358,-999.0,5.0,-999,0.00,,,-99.99,,2013-07-22 07:33:00,
2013-07-22 03:43:00,73.0,-99.9,29.93,North,358,-999.0,5.0,-999,0.00,,,-99.99,,2013-07-22 07:43:00,
2013-07-22 04:32:00,73.0,-99.9,29.93,North,-999,-999.0,-999.0,-999,0.00,,,-99.99,,2013-07-22 08:32:00,
2013-07-22 04:43:00,73.0,-99.9,29.93,North,-999,-999.0,-999.0,-999,0.00,,,-99.99,,2013-07-22 08:43:00,
2013-07-22 04:52:00,73.0,-99.9,29.93,North,-999,-999.0,-999.0,-999,0.00,,,-99.99,,2013-07-22 08:52:00,
2013-07-22 05:33:00,72.0,-99.9,29.93,North,-999,-999.0,-999.0,-999,0.00,,,-99.99,,2013-07-22 09:33:00,
2013-07-22 05:42:00,72.0,-99.9,29.93,North,-999,-999.0,-999.0,-999,0.00,,,-99.99,,2013-07-22 09:42:00,
2013-07-22 05:52:00,72.0,-99.9,29.93,North,-999,-999.0,-999.0,-999,0.00,,,-99.99,,2013-07-22 09:52:00,
2013-07-22 05:53:00,72.0,-99.9,29.94,North,9,-999.0,5.0,-999,0.00,,,-99.99,,2013-07-22 09:53:00,
2013-07-22 06:32:00,72.0,-99.9,29.94,North,9,-999.0,5.0,-999,0.00,,,-99.99,,2013-07-22 10:32:00,
2013-07-22 06:43:00,72.0,-99.9,29.94,North,9,-999.0,5.0,-999,0.00,,,-99.99,,2013-07-22 10:43:00,
2013-07-22 07:32:00,73.0,-99.9,29.95,NNW,339,-999.0,-999.0,-999,0.00,,,-99.99,,2013-07-22 11:32:00,
2013-07-22 07:43:00,73.0,-99.9,29.95,NNW,339,-999.0,-999.0,-999,0.00,,,-99.99,,2013-07-22 11:43:00,
2013-07-22 07:52:00,73.0,-99.9,29.95,NNW,339,-999.0,-999.0,-999,0.00,,,-99.99,,2013-07-22 11:52:00,
2013-07-22 07:53:00,75.0,-99.9,29.94,North,6,5.0,5.0,-999,0.00,,,-99.99,,2013-07-22 11:53:00,
2013-07-22 08:33:00,75.0,-99.9,29.94,North,6,5.0,5.0,-999,0.00,,,-99.99,,2013-07-22 12:33:00,
2013-07-22 08:43:00,75.0,-99.9,29.94,North,6,5.0,5.0,-999,0.00,,,-99.99,,2013-07-22 12:43:00,
2013-07-22 08:53:00,77.0,-99.9,29.94,ENE,60,7.0,8.0,-999,0.00,,,-99.99,,2013-07-22 12:53:00,
2013-07-22 09:43:00,77.0,-99.9,29.94,ENE,60,7.0,8.0,-999,0.00,,,-99.99,,2013-07-22 13:43:00,
2013-07-22 09:53:00,79.0,-99.9,29.94,ESE,123,-999.0,8.0,-999,0.00,,,-99.99,,2013-07-22 13:53:00,
2013-07-22 10:32:00,79.0,-99.9,29.94,ESE,123,-999.0,8.0,-999,0.00,,,-99.99,,2013-07-22 14:32:00,
2013-07-22 10:43:00,79.0,-99.9,29.94,ESE,123,-999.0,8.0,-999,0.00,,,-99.99,,2013-07-22 14:43:00,
2013-07-22 11:33:00,81.0,-99.9,29.94,ESE,102,3.0,9.0,-999,0.00,,,-99.99,,2013-07-22 15:33:00,
2013-07-22 11:43:00,81.0,-99.9,29.94,ESE,102,3.0,9.0,-999,0.00,,,-99.99,,2013-07-22 15:43:00,
2013-07-22 11:52:00,81.0,-99.9,29.94,ESE,102,3.0,9.0,-999,0.00,,,-99.99,,2013-07-22 15:52:00,
2013-07-22 12:43:00,81.0,-99.9,29.93,ENE,59,-999.0,9.0,-999,0.00,,,-99.99,,2013-07-22 16:43:00,
2013-07-22 12:52:00,81.0,-99.9,29.93,ENE,59,-999.0,9.0,-999,0.00,,,-99.99,,2013-07-22 16:52:00,
2013-07-22 13:33:00,82.0,-99.9,29.91,SSE,153,-999.0,6.0,-999,0.00,,,-99.99,,2013-07-22 17:33:00,
2013-07-22 13:43:00,82.0,-99.9,29.91,SSE,153,-999.0,6.0,-999,0.00,,,-99.99,,2013-07-22 17:43:00,
2013-07-22 13:52:00,82.0,-99.9,29.91,SSE,153,-999.0,6.0,-999,0.00,,,-99.99,,2013-07-22 17:52:00,
2013-07-22 13:53:00,81.0,-99.9,29.91,SSE,156,6.0,14.0,-999,0.06,,,-99.99,,2013-07-22 17:53:00,
2013-07-22 14:53:00,74.0,-99.9,29.89,North,354,-999.0,4.0,-999,0.57,,,-99.99,,2013-07-22 18:53:00,
2013-07-22 15:37:00,74.0,-99.9,29.89,North,354,-999.0,4.0,-999,0.57,,,-99.99,,2013-07-22 19:37:00,
2013-07-22 15:48:00,74.0,-99.9,29.89,North,354,-999.0,4.0,-999,0.57,,,-99.99,,2013-07-22 19:48:00,
2013-07-22 16:33:00,76.0,-99.9,29.86,ENE,73,-999.0,5.0,-999,0.00,,,-99.99,,2013-07-22 20:33:00,
2013-07-22 16:43:00,76.0,-99.9,29.86,ENE,73,-999.0,5.0,-999,0.00,,,-99.99,,2013-07-22 20:43:00,
2013-07-22 16:52:00,76.0,-99.9,29.86,ENE,73,-999.0,5.0,-999,0.00,,,-99.99,,2013-07-22 20:52:00,
2013-07-22 18:32:00,78.0,-99.9,29.84,North,349,-999.0,-999.0,-999,0.02,,,-99.99,,2013-07-22 22:32:00,
2013-07-22 18:43:00,78.0,-99.9,29.84,North,349,-999.0,-999.0,-999,0.02,,,-99.99,,2013-07-22 22:43:00,
2013-07-22 18:52:00,78.0,-99.9,29.84,North,349,-999.0,-999.0,-999,0.02,,,-99.99,,2013-07-22 22:52:00,
2013-07-22 19:32:00,77.0,-99.9,29.84,ENE,66,-999.0,-999.0,-999,0.11,,,-99.99,,2013-07-22 23:32:00,
2013-07-22 19:43:00,77.0,-99.9,29.84,ENE,66,-999.0,-999.0,-999,0.11,,,-99.99,,2013-07-22 23:43:00,
2013-07-22 19:52:00,77.0,-99.9,29.84,ENE,66,-999.0,-999.0,-999,0.11,,,-99.99,,2013-07-22 23:52:00,
2013-07-22 20:32:00,76.0,-99.9,29.83,NNE,31,-999.0,-999.0,-999,0.08,,,-99.99,,2013-07-23 00:32:00,
2013-07-22 20:43:00,76.0,-99.9,29.83,NNE,31,-999.0,-999.0,-999,0.08,,,-99.99,,2013-07-23 00:43:00,
2013-07-22 20:52:00,76.0,-99.9,29.83,NNE,31,-999.0,-999.0,-999,0.08,,,-99.99,,2013-07-23 00:52:00,
2013-07-22 20:53:00,75.0,-99.9,29.83,NE,49,-999.0,-999.0,-999,0.21,,,-99.99,,2013-07-23 00:53:00,
2013-07-22 21:44:00,75.0,-99.9,29.83,NE,49,-999.0,-999.0,-999,0.21,,,-99.99,,2013-07-23 01:44:00,
2013-07-22 21:53:00,76.0,-99.9,29.82,NE,49,-999.0,-999.0,-999,0.11,,,-99.99,,2013-07-23 01:53:00,
2013-07-22 22:33:00,76.0,-99.9,29.82,NE,49,-999.0,-999.0,-999,0.11,,,-99.99,,2013-07-23 02:33:00,
2013-07-22 22:43:00,76.0,-99.9,29.82,NE,49,-999.0,-999.0,-999,0.11,,,-99.99,,2013-07-23 02:43:00,
2013-07-22 23:33:00,76.0,-99.9,29.81,NE,37,-999.0,-999.0,-999,0.02,,,-99.99,,2013-07-23 03:33:00,
2013-07-22 23:43:00,76.0,-99.9,29.81,NE,37,-999.0,-999.0,-999,0.02,,,-99.99,,2013-07-23 03:43:00,
2013-07-22 23:52:00,76.0,-99.9,29.81,NE,37,-999.0,-999.0,-999,0.02,,,-99.99,,2013-07-23 03:52:00,
2013-07-22 23:53:00,75.0,-99.9,29.80,NE,37,-999.0,-999.0,-999,0.02,,,-99.99,,2013-07-23 03:53:00,